Regional Weather Roundup
Issued by NWS Wakefield, VA

Home | Current Version | Previous Version | Graphics & Text | Print | Product List | Glossary On
Versions: 1 2 3 4 5 6 7 8 9 10 11 12 13 14 15 16 17 18 19 20 21 22 23 24 25 26 27
000
ASUS41 KAKQ 231910
RWRAKQ

REGIONAL WEATHER ROUNDUP
NATIONAL WEATHER SERVICE WAKEFIELD VA
300 PM EDT WED APR 23 2014

Note: "fair" indicates few or no clouds below 12,000 feet with no
significant weather and/or obstructions to visibility. * = Denotes
station may not report precipitation (e.g., rain,snow,etc.),
thunder or fog.

VAZ042-051-052>054-056-232000-
NORTHERN VIRGINIA

CITY           SKY/WX    TMP DP  RH WIND       PRES   REMARKS
WASH NATIONAL  MOSUNNY   60  36  40 NW21G35   29.84R
DULLES         PTSUNNY   55  33  43 NW22G31   29.86R
FORT BELVOIR   MOSUNNY   59  35  39 NW21G29   29.85R
QUANTICO       MOSUNNY   62  33  33 NW24G33   29.85R
FREDERICKSBRG* MOSUNNY   63  33  32 N18G31    29.83F
STAFFORD*      MOSUNNY   62  37  40 NW23G31   29.89R
WARRENTON      SUNNY     62  41  46 NW25G37   29.85R
CULPEPER*      MOSUNNY   64  28  25 N15       29.86R
MANASSAS*      PTSUNNY   57  36  44 NW22G30   29.86R
LEESBURG*      MOSUNNY   55  39  54 NW17G35   29.87R
WINCHESTER     PTSUNNY   55  34  44 NW21G31   29.89R
$$

VAZ048-049-060>072-079>083-232000-
CENTRAL AND SOUTH CENTRAL VIRGINIA...AND NORTH CENTRAL NORTH CAROLINA

CITY           SKY/WX    TMP DP  RH WIND       PRES   REMARKS
RICHMOND       MOSUNNY   68  31  25 N14G24    29.82R
CHESTERFIELD*  CLEAR     68  30  24 NW20G29   29.83S
HANOVER        SUNNY     65  32  29 N12G21    29.84R
TAPPAHANNOCK*  MOSUNNY   63  26  24 W13G23    29.81S
CHARLOTTSVILLE MOSUNNY   63  31  30 N14G25    29.85S
ORANGE*        MOSUNNY   63  32  31 W16       29.87S
LOUISA*        SUNNY     64  32  29 W9G17     29.83S
FARMVILLE*     SUNNY     66  28  24 NW6G23    29.81R
SOUTH HILL*    SUNNY     68  34  28 NW7       29.87F
ROANOKE RAPIDS CLEAR     55  27  33 NW9G18    29.82S
RALEIGH        SUNNY     68  27  21 NW12G22   29.85S
$$

VAZ088>098-232000-
SOUTHEAST VIRGINIA

CITY           SKY/WX    TMP DP  RH WIND       PRES   REMARKS
NORFOLK        SUNNY     65  30  27 W14G22    29.78R
VIRGINIA BEACH MOSUNNY   67  36  31 NW18G29   29.77R
NORFOLK NAVAL  MOSUNNY   67  34  29 W17G26    29.79S
WEST POINT*      N/A    N/A N/A N/A MISG        N/A
NEWPORT NEWS   MOSUNNY   70  32  24 NW18G25   29.79R
LANGLEY AFB    SUNNY     65  35  32 NW13G26   29.78S
FORT EUSTIS    SUNNY     65  41  42 NW18G24   29.77S
WILLIAMSBURG*  SUNNY     70  37  30 NW14G25   29.80S
FRANKLIN*      SUNNY     70  34  26 NW16G24   29.80R
WAKEFIELD      SUNNY     68  30  24 NW9G22    29.80R
$$

VAZ020-022-025-037-045-232000-
WESTERN AND SOUTHWEST VIRGINIA

CITY           SKY/WX    TMP DP  RH WIND       PRES   REMARKS
STAUNTON*      SUNNY     59  29  31 N15       29.89S
HOT SPRINGS VA SUNNY     52  28  40 NW15G25   29.92F
LYNCHBURG      SUNNY     72  29  20 VRB7G20   29.85S
DANVILLE       SUNNY     69  30  23 W9        29.85F
MARTINSVILLE   SUNNY     69  25  19 NW12      29.90S
ROANOKE        SUNNY     65  28  24 W14G31    29.89S
BLACKSBURG     SUNNY     61  34  36 NW13      29.94S
DUBLIN*        SUNNY     60  25  26 N8G17     29.93S
MARION*        SUNNY     59  21  23 W17G26    29.97R
HILLSVILLE*    SUNNY     57   3  11 NW16G28   29.95S
RICHLANDS*     CLEAR     58  25  27 NW8G17    29.98R
WISE*          SUNNY     59  27  29 NW8       30.01S
ABINGDON*      SUNNY     62  20  20 N9        29.97S
$$

MDZ021>025-VAZ099-100-232000-
SOUTHERN MARYLAND AND THE DELMARVA PENINSULA

CITY           SKY/WX    TMP DP  RH WIND       PRES   REMARKS
PATUXENT RIVER MOSUNNY   62  34  35 NW21G29   29.79S
BAY BRIDGE APT SUNNY     57  36  44 NW20      29.79S
LEONARDTOWN    MOSUNNY   59  32  36 NW15G25   29.81R
DOVER          CLOUDY    58  35  43 W20G35    29.70S
GEORGETOWN     PTSUNNY   60  34  37 NW13G32   29.74S
EASTON         MOSUNNY   59  39  47 NW14G29   29.82R
CAMBRIDGE      SUNNY     59  34  38 NW21G30   29.78S
SALISBURY      MOSUNNY   61  35  37 NW21G30   29.75R
OCEAN CITY     MOSUNNY   60  35  39 NW16G35   29.72S
WALLOPS ISLAND SUNNY     61  38  42 NW23G33   29.75S
ACCOMACK*      SUNNY     59  34  38 NW18G37   29.78S
$$

NCZ012>017-030>032-232000-
EASTERN NORTH CAROLINA

CITY           SKY/WX    TMP DP  RH WIND       PRES   REMARKS
ELIZABETH CITY NOT AVBL
AHOSKIE*       SUNNY     68  36  30 NW7       29.80S
EDENTON*       MOSUNNY   70  38  30 NW14G22   29.78F
CURRITUCK*     SUNNY     70  30  22 W14G21    29.77S
KILL DEVIL HLS MOSUNNY   59  38  45 NE6       29.78S
MANTEO         SUNNY     61  37  41 NE12      29.79S
CAPE HATTERAS  SUNNY     62  40  44 NE13      29.79S
GOLDSBORO      SUNNY     73  30  20 NW16G25   29.80S
WASHINGTON     SUNNY     73  26  17 W10G17    29.79S
GREENVILLE     SUNNY     70  34  26 NW9G16    29.83S
NEW BERN       SUNNY     74  35  24 W15G22    29.80S
WILMINGTON     SUNNY     81  35  19 W18       29.78F
$$

VAZ048-232000-
ELSEWHERE

CITY           SKY/WX    TMP DP  RH WIND       PRES   REMARKS
HARRISBURG PA  PTSUNNY   57  36  45 NW20G30   29.80R
BALTIMORE      MOSUNNY   58  35  42 NW21G35   29.80R
ANNAPOLIS      MOSUNNY   56  37  49 NW18      29.79S
ANDREWS AFB    MOSUNNY   58  35  41 NW28G33   29.82R
WILMINGTON DE  MOSUNNY   58  36  43 NW26G36   29.74R
PHILADELPHIA   MOSUNNY   61  32  33 NW30G37   29.71S
WILDWOOD NJ*   CLOUDY    57  36  44 W17G28    29.72S
ATLANTIC CITY  CLOUDY    59  35  40 NW28G36   29.66S
HENDERSON NC   SUNNY     67  27  22 W10       29.85S
GREENSBORO     SUNNY     69  24  18 NW17G23   29.87F
ROCKY MOUNT    SUNNY     71  30  21 W16G25    29.82S
FAYETTEVILLE   SUNNY     77  26  15 NW16G25   29.83R
CHARLOTTE      SUNNY     75  27  17 NW12G17   29.88F
$$

VAZ100-232000-
MARINE

STATION/POSITION TIME  TEMP    WIND        PRES    WAVE   SWELL
                       AIR SEA DIR/SP/G            HT/PER HT/PER
                 (UTC) (F)     (DEG/KT/KT) (MB)    (FT/S) (FT/S)
44066 TX TWR #4  1900   47 44  290/ 14/ 16 1001.3R   5/ 6   2/ 9
CAPE MAY NJ      1900   55 57  330/ 22/ 28 1005.9F
LEWES DE         1900   54 53  330/ 23/ 27 1005.7F
15NM E FENWICK I 1900   51 47              1005.7S   4/ 5
OCEAN-CITY-INLET 1900   56 49  320/ 16/ 21 1006.0R
WACHAPREAGUE VA  1900   58 60  330/ 10/ 19 1007.9R
THOMAS POINT MD  1900   56 54  320/ 18/ 21 1009.3R
GOOSES REEF MD   1900   55     330/ 17/ 25   N/A
COVE POINT MD    1900   56     340/ 21/ 25 1008.4S
SOLOMONS ISLAND  1900      56                N/A
BISHOPS HEAD MD  1900   57 60  310/ 23/ 27 1008.4R
PINEY POINT MD   1900          320/ 23/ 26   N/A
POTOMAC MD       1900   55     300/ 19/ 23 1008.1R
CAMBRIDGE MD     1900   55 57  320/ 19/ 23 1007.9S
LEWISETTA VA     1900   57 58  310/ 22/ 27 1009.3R
RAPPAHANNOCK LGT 1900          330/ 20/ 22 1008.8R
STINGRAY PT      1900   58     330/ 21/ 25 1008.5S
YORK RVR RNG VA  1900   61     320/ 22/ 26 1007.4R
YORKTOWN VA      1900   61 57  330/ 19/ 22 1008.1S
JAMESTOWN VA     1900   62     340/ 17/ 23   N/A
DOMINION TERM VA 1900   61     320/ 16/ 20 1008.5R
KIPTOPEKE VA     1900      55  340/ 19/ 27   N/A
CHES BAY BRIDGE  1900   58 54  320/ 16/ 18 1008.2R
CAPE HENRY VA    1900   58     320/ 17/ 20   N/A
CHESAPEAKE LGHT  1800   54     340/ 19/ 20 1008.6S
WILLOUBY STN VA  1900   61     310/ 18/ 21 1007.5R
S CRANEY ISL VA  1900          300/ 13/ 20 1008.4R
CAPE HENRY BUOY  1900      49                N/A     4/ 9
1ST LANDING BUOY 1900      49                N/A     3/ 9   2/ 9
64NM E OF VA BCH 1900   52 49  330/ 12/ 14 1007.8F   4/ 5   2/ 9
DUCK PIER NC     1900   54 50   20/ 12/ 19 1007.6S
44100 DUCK FRF   1900      50                N/A     3/ 8
44056 DUCK FRF   1900      50                N/A     3/ 5
OREGON INLET NC  1900   55 58   10/ 13/ 15 1008.5R
HATTERAS NC      1900   60 59   30/  8/ 12 1008.7S
DIAMOND SHLS NC  1900   61 76   20/ 12/ 14 1008.2F   6/ 7   5/ 7
CAPE LOOKOUT NC  1800   63     110/  3/  4 1008.7F
FRYING PAN SHLS  1900   67 69  240/ 12/ 12 1009.0F   3/ 9   2/ 9
$$



USA.gov is the U.S. government's official web portal to all federal, state and local government web resources and services.